Location: Gro�sch�nbrunn
(49.5760°N, 11.8868°E)
Time: 15:21:30
(UTC+00:00)

N. Korean satellite - Pass Details

Date: 01 December 2020
Orbit: 453 x 502 km, 97.2° (Epoch: 15 January)

Event Time Altitude Azimuth Distance (km) Brightness Sun altitude
Rises 04:07:14 0° 22° (NNE) 2,561 10.5 -25.1°
Reaches altitude 10° 04:09:32 10° 35° (NE) 1,684 9.6 -24.8°
Maximum altitude 04:12:40 27° 95° (E) 969 8.7 -24.3°
Drops below altitude 10° 04:15:50 10° 155° (SSE) 1,692 9.7 -23.8°
Sets 04:18:08 0° 168° (SSE) 2,575 10.5 -23.4°
